TimeMST,TemperatureF,Dew PointF,Humidity,Sea Level PressureIn,VisibilityMPH,Wind Direction,Wind SpeedMPH,Gust SpeedMPH,PrecipitationIn,Events,Conditions,WindDirDegrees,DateUTC
12:53 AM,14.0,6.1,71,30.12,-9999.0,SW,13.8,-,N/A,,Clear,230,2013-02-13 07:53:00
1:53 AM,14.0,6.1,71,30.10,-9999.0,WSW,9.2,-,N/A,,Clear,250,2013-02-13 08:53:00
2:53 AM,14.0,6.1,71,30.08,-9999.0,WSW,6.9,-,N/A,,Clear,240,2013-02-13 09:53:00
3:53 AM,15.1,7.0,70,30.07,-9999.0,WSW,11.5,-,N/A,,Clear,250,2013-02-13 10:53:00
5:53 AM,19.0,10.0,68,30.07,-9999.0,SW,19.6,-,N/A,,Clear,230,2013-02-13 12:53:00
6:53 AM,17.1,10.0,74,30.13,-9999.0,SSW,11.5,-,N/A,,Clear,210,2013-02-13 13:53:00
7:53 AM,21.9,10.9,63,30.12,-9999.0,WSW,25.3,-,N/A,,Clear,240,2013-02-13 14:53:00
8:53 AM,24.1,12.9,62,30.11,-9999.0,WSW,23.0,29.9,N/A,,Clear,240,2013-02-13 15:53:00
9:53 AM,28.0,15.1,58,30.08,-9999.0,West,19.6,28.8,N/A,,Clear,270,2013-02-13 16:53:00
10:53 AM,30.0,17.1,59,30.07,-9999.0,WSW,23.0,-,N/A,,Overcast,250,2013-02-13 17:53:00
11:53 AM,30.0,17.1,59,30.04,-9999.0,West,28.8,-,N/A,,Clear,270,2013-02-13 18:53:00
12:53 PM,30.0,19.0,64,30.01,-9999.0,West,26.5,39.1,N/A,,Clear,270,2013-02-13 19:53:00
1:53 PM,30.0,18.0,61,29.99,-9999.0,West,32.2,39.1,N/A,,Clear,280,2013-02-13 20:53:00
2:53 PM,30.0,19.0,64,30.00,-9999.0,WNW,27.6,35.7,N/A,,Clear,290,2013-02-13 21:53:00
3:53 PM,28.9,18.0,64,30.00,-9999.0,West,26.5,32.2,N/A,,Clear,280,2013-02-13 22:53:00
4:53 PM,27.0,17.1,66,30.03,-9999.0,WNW,23.0,-,N/A,,Clear,300,2013-02-13 23:53:00
5:53 PM,24.1,15.1,69,30.05,-9999.0,WNW,17.3,-,N/A,,Clear,300,2013-02-14 00:53:00
6:53 PM,24.1,15.1,69,30.06,-9999.0,West,23.0,-,N/A,,Clear,280,2013-02-14 01:53:00
7:53 PM,19.9,14.0,78,30.08,-9999.0,West,4.6,-,N/A,,Clear,280,2013-02-14 02:53:00
8:53 PM,23.0,14.0,68,30.05,-9999.0,West,4.6,-,N/A,,Clear,260,2013-02-14 03:53:00
9:53 PM,25.0,16.0,69,30.02,-9999.0,WNW,8.1,-,N/A,,Overcast,290,2013-02-14 04:53:00
10:53 PM,27.0,15.1,61,30.00,-9999.0,WNW,8.1,-,N/A,,Overcast,300,2013-02-14 05:53:00
11:53 PM,25.0,16.0,69,30.02,-9999.0,West,3.5,-,N/A,,Overcast,280,2013-02-14 06:53:00